Weather Roundup
Issued by NWS

Home | Current Version | Previous Version | Text Only | Print | Product List | Glossary On
Versions: 1 2 3 4 5 6 7 8 9 10 11 12 13 14 15 16 17 18 19 20 21 22 23 24 25 26 27 28 29 30 31 32 33 34 35 36 37 38 39 40 41 42 43 44 45 46 47 48 49 50
000
NZUS93 KARX 251210
HRRWXR

CURRENT HOURLY OBSERVATIONS ACROSS
MUCH OF THE UPPER MISSISSIPPI VALLEY
NATIONAL WEATHER SERVICE LA CROSSE WI
700 AM CDT SAT OCT 25 2014


...SOUTHEAST MINNESOTA...


CITY           SKY/WX    TMP DP  RH WIND       PRES   REMARKS
ROCHESTER      CLEAR     46  40  79 W7        30.00R
ROCHESTER/MAYO FAIR      51  38  63 W9        29.99S
WINONA         CLEAR     48  45  87 NW3       29.96S
AUSTIN         CLEAR     48  39  71 NW8       30.01R
ALBERT LEA     CLEAR     48  41  76 W5        30.03R
DODGE CENTER   PTCLDY    50  39  66 NW9       30.00S
PRESTON        CLEAR     47  40  78 NW8       29.99S
OWATONNA       PTCLDY    45  37  76 CALM      30.01S
FARIBAULT      PTCLDY    50  39  66 W5        30.01R
$$

...ELSEWHERE IN MINNESOTA...


CITY           SKY/WX    TMP DP  RH WIND       PRES   REMARKS
MINNEAPOLIS    PTCLDY    51  35  54 NW9       29.99R
INTNL FALLS    CLEAR     42  33  70 W9        29.85R
DULUTH         CLEAR     48  32  53 NW15G25   29.86R
RED WING       CLEAR     39  37  93 CALM      29.96S
REDWOOD FALLS  FAIR      50  38  63 W8        30.05R
MANKATO        MOCLDY    52  36  54 NW9       30.03R
WORTHINGTON    CLEAR     45  36  70 NW7       30.09R
FAIRMONT       PTCLDY    52   0  11 NW8       30.05R
$$

...SOUTHWEST WISCONSIN...


CITY           SKY/WX    TMP DP  RH WIND       PRES   REMARKS
LA CROSSE      FOG       44  43  96 CALM      29.95R VSB 1/4
PRAIRIE DU CHI FOG       48  47  95 CALM      29.97R VSB 1/2
BOSCOBEL       FOG       50  49  96 SW6       29.95R VSB 1/4
LONE ROCK      HAZE      56  51  84 W6        29.93S VSB 1/4
PLATTEVILLE    CLEAR     53  51  95 CALM      29.96R
FORT MC COY    CLEAR     43  42  96 W3        29.93F
VIROQUA        FAIR      50  48  93 W7        29.95R
WIS DELLS      CLEAR     52  47  84 W6        29.92R
$$

...ELSEWHERE IN WISCONSIN...


CITY           SKY/WX    TMP DP  RH WIND       PRES   REMARKS
MILWAUKEE      PTCLDY    56  52  86 W9        29.88S
MADISON        PTCLDY    54  52  93 W5        29.90S
GREEN BAY      CLEAR     53  51  93 W8        29.82S FOG
EAU CLAIRE     CLEAR     43  37  79 W5        29.92S
BLACK RVR FLS  FAIR      40  40 100 CALM      29.92S FOG
MEDFORD        CLEAR     45  40  82 W10       29.87S
WAUSAU         CLEAR     48  45  89 W9        29.85R
WIS RAPIDS     CLEAR     49  44  83 NW7       29.89S
MARSHFIELD     CLEAR     48  42  80 W8        29.89R
RICE LAKE      CLEAR     45  35  69 W5        29.93S
$$

...NORTHEAST IOWA...


CITY           SKY/WX    TMP DP  RH WIND       PRES   REMARKS
DECORAH        CLEAR     48  45  87 CALM      29.98R
MASON CITY     CLEAR     48  40  73 NW9       30.04R
CHARLES CITY   CLEAR     43  41  93 NW6       30.02R
OELWEIN        CLEAR     46  45  93 NW8       30.01R
$$

...ELSEWHERE IN IOWA...


CITY           SKY/WX    TMP DP  RH WIND       PRES   REMARKS
DES MOINES     CLEAR     55  43  63 N9        30.02S
IOWA CITY      CLEAR     52  49  89 NW8       29.99S
FORT DODGE     CLEAR     48  39  71 N3        30.06R
$$

...NORTHERN ILLINOIS...


CITY           SKY/WX    TMP DP  RH WIND       PRES   REMARKS
CHICAGO-OHARE  PTCLDY    54  52  93 W7        29.90F FOG
CHICAGO-MIDWAY CLOUDY    58  55  90 W5        29.91F FOG
MOLINE         FOG       54  53  97 W7        29.97R VSB 1/2
ROCKFORD       FOG       49  48  97 CALM      29.95S VSB 1/8
PEORIA         FOG       55  52  89 CALM      29.98S VSB 1/8
$$

NOTE: "FAIR" INDICATES FEW OR NO CLOUDS BELOW 12,000 FEET WITH NO
SIGNIFICANT WEATHER AND/OR OBSTRUCTIONS TO VISIBILITY. WIND
SPEEDS ARE IN MILES-PER-HOUR.



USA.gov is the U.S. government's official web portal to all federal, state and local government web resources and services.